Location: Newark
(55.7816°N, 8.2389°E)
Time: 01:25:24
(UTC+00:00)

LilacSat-2 - Pass Details

Date: 26 February 2020
Orbit: 514 x 534 km, 97.5° (Epoch: 06 April)

Event Time Altitude Azimuth Distance (km) Brightness Sun altitude
Rises 17:41:30 0° 216° (SW) 2,626 ? -7.4°
Reaches altitude 10° 17:44:39 10° 246° (WSW) 1,746 ? -7.9°
Maximum altitude 17:46:24 13° 274° (W) 1,579 ? -8.1°
Drops below altitude 10° 17:48:08 10° 301° (WNW) 1,753 ? -8.3°
Sets 17:51:20 0° 331° (NNW) 2,650 ? -8.8°
